Location: City of Moscow
(46.7306°N, 116.9989°W)
Time: 18:01:23
(UTC+00:00)

SMAP - Visible Passes

Search period start: 07 March 2026 00:00
Search period end: 17 March 2026 00:00
Orbit: 681 x 683 km, 98.1° (Epoch: 7 March)

Date Brightness Start Highest point End Pass type
(mag) Time Alt. Az. Time Alt. Az. Time Alt. Az.
7 Mar 5.1 13:32:06 10° NNE 13:36:19 33° E 13:40:31 10° SSE visible
8 Mar 6.1 02:16:17 10° SW 02:19:48 21° W 02:23:22 10° NW visible
9 Mar 6.1 13:08:25 10° NE 13:11:51 20° E 13:15:17 10° SE visible
11 Mar 6.4 02:29:16 10° SW 02:32:13 16° W 02:35:09 10° NW visible
11 Mar 6.6 12:45:35 10° ENE 12:47:17 12° E 12:48:59 10° ESE visible
12 Mar 5.7 13:20:19 10° NE 13:24:13 26° E 13:28:06 10° SSE visible
14 Mar 6.7 02:42:38 10° WSW 02:44:37 12° W 02:46:35 10° WNW visible
14 Mar 6.3 12:56:54 10° NE 12:59:42 16° E 13:02:28 10° SE visible
15 Mar 5.2 13:32:19 10° NNE 13:36:33 33° E 13:40:45 10° SSE visible
16 Mar 6.2 02:16:31 10° SW 02:20:02 21° W 02:23:35 10° NW visible
